This demonstration page uses our WeatherBlox Daily Observations layout. Learn more.

40.92945, -100.16068

Hourly Observations for December 1, 2016

Temp ( °F °C ) Dew Point ( °F °C ) Humidity (%) Winds ( mph kmh ) Pressure ( in mb ) Visibility ( mi km ) Precip ( " mm )
12:15 am 00:15 Clear 24 -4.6 20 -6.9 84 84 W 6 9 30.09 1019 10 16.0934 N/A
12:35 am 00:35 Clear 24 -4.5 20 -6.7 85 85 W 9 15 30.12 1020 10 16.0934 N/A
12:55 am 00:55 Clear 26 -3.6 21 -6.3 82 82 W 9 15 30.12 1020 10 16.0934 N/A
1:15 am 01:15 Clear 26 -3.6 20 -6.4 81 81 W 10 17 30.12 1020 10 16.0934 N/A
1:35 am 01:35 Clear 26 -3.6 20 -6.4 81 81 W 8 13 30.12 1020 10 16.0934 N/A
1:55 am 01:55 Clear 25 -4 20 -6.6 82 82 W 7 11 30.12 1020 10 16.0934 N/A
2:15 am 02:15 Clear 24 -4.3 19 -7 82 82 WSW 3 6 30.12 1020 10 16.0934 N/A
2:35 am 02:35 Clear 23 -4.9 19 -7.2 84 84 W 7 11 30.12 1020 10 16.0934 N/A
2:55 am 02:55 Clear 23 -5.1 19 -7.3 85 85 W 7 11 30.12 1020 10 16.0934 N/A
3:15 am 03:15 Clear 22 -5.6 18 -7.6 86 86 W 7 11 30.15 1021 10 16.0934 N/A
3:35 am 03:35 Clear 23 -5.1 19 -7.4 84 84 WNW 6 9 30.12 1020 10 16.0934 N/A
3:55 am 03:55 Clear 22 -5.5 18 -7.7 85 85 NW 6 9 30.15 1021 10 16.0934 N/A
4:15 am 04:15 Clear 19 -7.1 16 -8.8 88 88 NNW 5 7 30.15 1021 10 16.0934 N/A
4:35 am 04:35 Clear 19 -7.2 16 -8.9 88 88 NW 5 7 30.12 1020 10 16.0934 N/A
4:55 am 04:55 Clear 19 -7.4 16 -9 88 88 WNW 5 7 30.15 1021 10 16.0934 N/A
5:15 am 05:15 Clear 18 -7.6 15 -9.2 88 88 WNW 7 11 30.15 1021 10 16.0934 N/A
5:35 am 05:35 Clear 20 -6.5 17 -8.1 89 89 WNW 8 13 30.15 1021 10 16.0934 N/A
5:55 am 05:55 Clear 19 -7 17 -8.6 89 89 WNW 6 9 30.15 1021 10 16.0934 N/A
6:15 am 06:15 Clear 20 -6.7 17 -8.4 88 88 WNW 6 9 30.15 1021 10 16.0934 N/A
6:35 am 06:35 Clear 19 -7.1 16 -9 86 86 WNW 5 7 30.15 1021 10 16.0934 N/A
6:55 am 06:55 Clear 19 -7.5 15 -9.2 88 88 Calm 30.18 1022 10 16.0934 N/A
7:15 am 07:15 Clear 18 -7.7 15 -9.5 87 87 WNW 3 6 30.18 1022 10 16.0934 N/A
7:35 am 07:35 Clear 17 -8.4 14 -10.1 88 88 NNW 3 6 30.21 1023 10 16.0934 N/A
7:55 am 07:55 Sunny 16 -8.7 13 -10.3 88 88 NNW 5 7 30.21 1023 10 16.0934 N/A
8:15 am 08:15 Sunny 18 -7.8 15 -9.5 88 88 NW 5 7 30.18 1022 10 16.0934 N/A
8:35 am 08:35 Sunny 20 -6.9 16 -8.7 87 87 W 5 7 30.18 1022 10 16.0934 N/A
8:55 am 08:55 Sunny 22 -5.6 18 -8 83 83 WNW 7 11 30.18 1022 10 16.0934 N/A
9:15 am 09:15 Sunny 23 -5 18 -7.7 82 82 NW 7 11 30.15 1021 10 16.0934 N/A
9:35 am 09:35 Sunny 26 -3.5 20 -6.8 78 78 WNW 6 9 30.15 1021 10 16.0934 N/A
9:55 am 09:55 Sunny 28 -2.3 21 -6.3 74 74 WNW 7 11 30.15 1021 10 16.0934 N/A
10:15 am 10:15 Sunny 30 -1.2 22 -5.7 72 72 W 8 13 30.12 1020 10 16.0934 N/A
10:35 am 10:35 Sunny 31 -0.3 22 -5.3 69 69 WNW 7 11 30.12 1020 10 16.0934 N/A
10:55 am 10:55 Sunny 32 0 23 -5.2 68 68 W 7 11 30.12 1020 10 16.0934 N/A
11:15 am 11:15 Sunny 34 1 23 -5.1 64 64 WNW 6 9 30.09 1019 10 16.0934 N/A
11:35 am 11:35 Sunny 36 2.1 23 -4.8 61 61 W 7 11 30.09 1019 7 11.26538 N/A
11:55 am 11:55 Sunny 37 2.5 23 -5 58 58 W 7 11 30.09 1019 10 16.0934 N/A
12:15 pm 12:15 Sunny 37 2.9 23 -5 56 56 WNW 5 7 30.06 1018 10 16.0934 N/A
12:35 pm 12:35 Sunny 39 3.7 23 -4.9 54 54 W 5 7 30.03 1017 10 16.0934 N/A
12:55 pm 12:55 Sunny 41 5 22 -5.7 46 46 W 3 6 30.03 1017 10 16.0934 N/A
1:15 pm 13:15 Sunny 41 4.8 21 -6 46 46 W 3 6 30.03 1017 10 16.0934 N/A
1:35 pm 13:35 Sunny 42 5.5 21 -6.1 43 43 Calm 30.03 1017 10 16.0934 N/A
1:55 pm 13:55 Sunny 42 5.7 20 -6.5 41 41 Calm 30 1016 10 16.0934 N/A
2:15 pm 14:15 Sunny 44 6.5 18 -7.7 36 36 Calm 29.97 1015 10 16.0934 N/A
2:35 pm 14:35 Sunny 44 6.6 18 -8 35 35 W 3 6 29.97 1015 10 16.0934 N/A
2:55 pm 14:55 Sunny 44 6.9 17 -8.1 34 34 W 3 6 29.97 1015 10 16.0934 N/A
3:15 pm 15:15 Sunny 45 7.1 15 -9.2 31 31 WNW 6 9 29.97 1015 10 16.0934 N/A
3:35 pm 15:35 Sunny 45 7 16 -9.1 31 31 WNW 5 7 29.97 1015 10 16.0934 N/A
3:55 pm 15:55 Sunny 43 6.3 15 -9.2 32 32 W 5 7 29.97 1015 10 16.0934 N/A
4:15 pm 16:15 Sunny 41 5.1 17 -8.4 37 37 WNW 3 6 30.03 1017 10 16.0934 N/A
4:35 pm 16:35 Sunny 40 4.5 18 -7.7 41 41 Calm 30.03 1017 10 16.0934 N/A
4:55 pm 16:55 Sunny 39 4 19 -7.5 43 43 Calm 30.03 1017 10 16.0934 N/A
5:15 pm 17:15 Clear 38 3.4 19 -7.2 46 46 Calm 30.06 1018 10 16.0934 N/A
5:35 pm 17:35 Clear 38 3.5 16 -8.8 41 41 Calm 30.03 1017 10 16.0934 N/A
5:55 pm 17:55 Clear 28 -2 22 -5.5 77 77 NW 6 9 30 1016 10 16.0934 N/A
6:15 pm 18:15 Clear 31 -0.6 20 -6.9 63 63 Calm 30.09 1019 10 16.0934 N/A
6:35 pm 18:35 Clear 32 0.1 19 -7 59 59 Calm 30.09 1019 10 16.0934 N/A
6:55 pm 18:55 Clear 29 -1.4 19 -7 66 66 Calm 30.09 1019 10 16.0934 N/A
7:15 pm 19:15 Clear 31 -0.6 19 -7.2 61 61 S 3 6 30.12 1020 10 16.0934 N/A
7:35 pm 19:35 Clear 30 -1.3 20 -6.6 68 68 S 5 7 30.12 1020 10 16.0934 N/A
7:55 pm 19:55 Clear 28 -2 19 -7 69 69 S 3 6 30.12 1020 10 16.0934 N/A
8:15 pm 20:15 Clear 28 -2 19 -7.1 68 68 NE 5 7 30.12 1020 10 16.0934 N/A
8:35 pm 20:35 Clear 27 -3 19 -7.4 72 72 Calm 30.15 1021 10 16.0934 N/A
8:55 pm 20:55 Clear 26 -3.6 19 -7.5 75 75 Calm 30.15 1021 10 16.0934 N/A
9:15 pm 21:15 Clear 24 -4.5 18 -7.9 77 77 Calm 30.18 1022 10 16.0934 N/A
9:35 pm 21:35 Clear 24 -4.5 17 -8.4 74 74 Calm 30.18 1022 10 16.0934 N/A
9:55 pm 21:55 Clear 23 -4.9 17 -8.6 76 76 NE 3 6 30.21 1023 10 16.0934 N/A
10:15 pm 22:15 Clear 21 -6 17 -8.5 83 83 NE 5 7 30.21 1023 10 16.0934 N/A
10:35 pm 22:35 Clear 21 -6 17 -8.1 85 85 Calm 30.21 1023 10 16.0934 N/A
10:55 pm 22:55 Clear 22 -5.5 17 -8.1 82 82 Calm 30.21 1023 10 16.0934 N/A
11:15 pm 23:15 Clear 21 -6.2 17 -8.4 85 85 WNW 5 7 30.21 1023 10 16.0934 N/A
11:35 pm 23:35 Clear 21 -6 17 -8.3 84 84 Calm 30.21 1023 10 16.0934 N/A
11:55 pm 23:55 Clear 20 -6.5 17 -8.6 85 85 NW 6 9 30.24 1024 10 16.0934 N/A

Powered by AerisWeather